Location: Montclair
(37.8322°N, 122.2092°W)
Time: 12:32:12
(UTC+00:00)

Cosmos 2237 - Pass Details

Date: 08 September 2024
Orbit: 848 x 853 km, 70.8° (Epoch: 11 October)

Event Time Altitude Azimuth Distance (km) Brightness Sun altitude
Rises 12:01:38 0° 334° (NNW) 3,417 7.4 -20.5°
Reaches altitude 10° 12:04:06 10° 332° (NNW) 2,478 6.6 -20.0°
Maximum altitude 12:09:44 67° 251° (WSW) 918 4.1 -19.0°
Drops below altitude 10° 12:15:20 10° 170° (S) 2,462 6.5 -18.0°
Sets 12:17:47 0° 167° (SSE) 3,394 7.3 -17.5°
